Other Surface Observations
Issued by NWS Tucson, AZ

Home | Current Version | Previous Version | Text Only | Print | Product List | Glossary On
Versions: 1 2 3 4 5 6 7 8 9 10 11 12 13 14 15 16 17 18 19 20 21 22 23 24 25 26 27 28 29 30 31 32 33 34 35 36 37 38 39 40 41 42 43 44 45 46 47 48 49 50
000
SXUS55 KTWC 212216
OSOTWC

WEATHER ROUNDUP FOR SOUTHEAST ARIZONA
NATIONAL WEATHER SERVICE TUCSON AZ
315 PM MST SUN SEP 21 2014

AZZ504>506-514-212315-
LOCATION       SKY/WX    TMP DP  RH WIND       PRES   REMARKS
TUCSON         SUNNY     93  61  34 VRB5      29.97F
DAVIS-MONTHAN  SUNNY     92  63  37 NW2       29.95F
CHILDRENS PARK N/A       91  60  36 NW2               PIMA CO DEQ
ALVERNON/22ND  N/A      N/A N/A N/A N/A               PIMA CO DEQ
CHERRY/GLENN   N/A      N/A N/A N/A N/A               PIMA CO DEQ
TANGERINE      N/A       93 N/A N/A W3                PIMA CO DEQ
CONTL RANCH    N/A       92  60  35 NE2               PIMA CO DEQ
GRANT/1ST      N/A       92  62  37 N2                PIMA CO DEQ
CRAYCROFT/22ND N/A      N/A N/A N/A N/A               PIMA CO DEQ
GOLFLINKS/KOLB N/A       91  63  40 W3                PIMA CO DEQ
AJO/12TH       N/A       92  62  37 S3                PIMA CO DEQ
SAGUARO EAST   N/A      N/A N/A N/A N/A               PIMA CO DEQ
FAIRGROUNDS    N/A       88 N/A N/A N5                PIMA CO DEQ
SAGUARO        N/A       94  64  37 W5G10             *SABINO CYN
SAN CARLOS     N/A       92  63  38 SE6G11            *SAN CARLOS
GREEN VALLEY   N/A       90  62  39 E2                PIMA CO DEQ
HORSE CAMP CYN N/A       81  62  53 E10G22            *ARAVAIPA CYN
RINCON MTNS    N/A       66  57  74 CALM              *NR MANNING CAMP
$$

AZZ509>511-212315-
LOCATION       SKY/WX    TMP DP  RH WIND       PRES   REMARKS
SAFFORD        PTSUNNY   89  61  38 SE7       29.98F
STRAY HORSE    N/A       69  54  59 S2                *
TRAIL CABIN    N/A       75  61  61 SE3G10            *N OF GRANVILLE
BLACK HILLS    N/A       90  64  42 S7G15             *N OF FT THOMAS
DRY LAKE       N/A       62  58  86 S5G15             *NATANES MTNS
NOON CREEK     N/A       79  63  59 S5G15             *PINALENO MTNS
COLUMBINE      N/A       60  53  78 S4G11             *PINALENO MTNS
GUTHRIE        N/A       77  60  56 SE5G15            *SW OF GUTHRIE
$$

AZZ502-503-513-212315-
LOCATION       SKY/WX    TMP DP  RH WIND       PRES   REMARKS
NOGALES        LGT RAIN  79  67  66 N12G18    30.05S
SELLS          N/A       94  58  30 W5G11             *
SASABE         N/A       89  62  41 NW5G11            *ALTAR VLY
HOPKINS        N/A       76  65  70 W5                *SANTA RITA MTNS
CARR CYN       N/A       81  65  58 E4G10             *W OF HEREFORD
$$

AZZ507-508-512-212315-
LOCATION       SKY/WX    TMP DP  RH WIND       PRES   REMARKS
SIERRA VISTA   PTSUNNY   81  62  52 E9        30.10F
DOUGLAS        CLOUDY    81  61  50 E7        30.07R
EMPIRE MTNS    N/A       73  66  78 NW5G14            *LAS CIENEGAS NCA
MULESHOE RANCH N/A       76  67  73 N6G12             *PRESERVE
HEADQUARTERS   N/A       75  64  69 E6G12             *CHIRICAHUA MTNS
$$

.............................NOTES.............................
THIS IS AN AUTOMATED COLLECTIVE WITH MINIMAL QUALITY CONTROL.
PIMA CO DEQ SITES HAVE NONSTANDARD WIND SENSOR HEIGHTS.
PIMA CO DEQ SITES DO NOT REPORT WIND GUSTS.
* INDICATES WIND SENSORS LOCATED AT 20 FEET INSTEAD OF 33 FEET.
..............................KEY..............................
SKY/WX - SKY CONDITION/WEATHER
TMP    - TEMPERATURE IN FAHRENHEIT
DP     - DEWPOINT IN FAHRENHEIT
RH     - RELATIVE HUMIDITY IN PERCENT
WIND   - DIRECTION AND SPEED IN MILES PER HOUR (MPH)
VRB    - VARIABLE WIND DIRECTION
PRES   - MEAN SEA LEVEL PRESSURE IN INCHES OF MERCURY
         F - FALLING PRESSURE   R - RISING PRESSURE
         S - STEADY PRESSURE
VSB    - VISIBILITY IN MILES
HX     - HEAT INDEX IN FAHRENHEIT
WCI    - WIND CHILL INDEX IN FAHRENHEIT
N/A    - NOT AVAILABLE
AFB    - AIR FORCE BASE
         DAVIS-MONTHAN IS DAVIS-MONTHAN AIR FORCE BASE
CYN    - CANYON
MTNS   - MOUNTAINS
NCA    - NATIONAL CONSERVATION AREA
NR     - NEAR
VLY    - VALLEY
CONTL  - CONTINENTAL
PIMA CO DEQ - PIMA COUNTY DEPT OF ENVIRONMENTAL QUALITY



USA.gov is the U.S. government's official web portal to all federal, state and local government web resources and services.